Regional Weather Roundup
Issued by NWS Grand Forks, ND

Home | Current Version | Previous Version | Graphics & Text | Print | Product List | Glossary On
Versions: 1 2 3 4 5 6 7 8 9 10 11 12 13 14 15 16 17 18 19 20 21 22 23 24 25 26 27 28 29 30 31 32 33 34 35 36 37 38 39 40 41 42 43 44 45 46 47 48 49 50
000
ASUS43 KFGF 180110
RWRFGF
PRAIRIE TO PINES  WEATHER ROUNDUP
NATIONAL WEATHER SERVICE EASTERN NORTH DAKOTA/GRAND FORKS ND
800 PM CDT THU APR 17 2014

 **SATELLITE DATA USED TO AUGMENT SKY COVER AT AUTOMATED STATIONS**
 *****  WEATHER ACROSS EASTERN NORTH DAKOTA  *****

CITY           SKY/WX    TMP DP  RH WIND       PRES   REMARKS
GRAND FORKS    MOCLDY    37  14  38 N5        30.29S
GRAND FRKS AFB MOCLDY    37  10  32 NE5       30.29S
GRAND FRKS NWS   N/A     37 N/A N/A NE5         N/A
DEVILS LAKE    CLOUDY    37  12  35 E14       30.22F
FARGO          CLEAR     41  17  38 N5        30.27S
WAHPETON ARPT  CLEAR     41  12  30 CALM      30.28S
$$

 ***** WEATHER ACROSS CENTRAL AND WESTERN NORTH DAKOTA  *****

CITY           SKY/WX    TMP DP  RH WIND       PRES   REMARKS
BISMARCK       CLOUDY    44  23  43 S14       30.14F
MINOT          CLOUDY    39  20  46 E10       30.13S
JAMESTOWN      CLOUDY    41  17  38 SE8       30.20F
MINOT AFB      CLOUDY    38  22  51 E12       30.13S
GARRISON         N/A     41  23  48 S12       30.11S
WILLISTON      MOCLDY    42  27  55 SE10      30.03F
DICKINSON      MOCLDY    44  25  47 SE15      30.00F
HETTINGER      MOCLDY    44  29  55 SE14      30.02F
$$

 *****  OTHER AIRPORT OBSERVATIONS IN OUR AREA  *****

CITY           SKY/WX    TMP DP  RH WIND       PRES   REMARKS
WALHALLA         N/A     36  14  41 SE8       30.29S
GRAFTON AIRPOR FAIR      36  12  38 CALM      30.30S
VALLEY CITY AR NOT AVBL
CANDO          CLOUDY    37  16  41 SE8       30.23S
CAVALIER APRT  FAIR      36  14  41 E3        30.29F
GWINNER        PTCLDY    43  16  33 E6        30.25F
ROLLA          CLOUDY    34  16  47 SE9       30.21F
 ***** THE ABOVE OBSERVATIONS ARE NON NWS ARE NOT QUALITY
       CONTROLLED AND MAY MIS-REPORT RAIN FOR SNOW...
$$

  *****  WEATHER ACROSS NORTHERN MINNESOTA  *****

CITY           SKY/WX    TMP DP  RH WIND       PRES   REMARKS
FLAG ISLAND    CLEAR     36   5  27 CALM      30.28R
WARROAD        CLEAR     34   9  35 CALM      30.29S
ROSEAU         CLEAR     37  10  32 E6        30.28S
HALLOCK        CLOUDY    36  18  48 NW6       30.29S
THF RVR FALLS  MOCLDY    39  10  30 NW7       30.28S
BAUDETTE       CLEAR     31  11  43 NW6       30.28R
WASKISH        CLEAR     36  16  44 CALM      30.26S
CROOKSTON      MOCLDY    37  19  48 NW6       30.29S
$$
  *****  WEATHER ACROSS CENTRAL AND WEST MINNESOTA  *****

CITY           SKY/WX    TMP DP  RH WIND       PRES   REMARKS
FOSSTON        MOCLDY    36  14  41 NW3       30.27S
BEMIDJI        PTCLDY    36   3  25 N5        30.24S
PARK RAPIDS    CLEAR     42   1  18 N3        30.23R
ELBOW LAKE     FAIR      37  22  55 W7        30.26S
WADENA         CLEAR     37  18  44 W6        30.24S
DETROIT LAKES  CLEAR     37  18  44 NW5       30.26S
MOORHEAD       NOT AVBL
FERGUS FALLS   CLEAR     37  16  41 W7        30.25R
MORRIS MN      CLEAR     39  21  48 SW3       30.27S
STAPLES        CLEAR     37  14  38 W6        30.24R
$$
  *****  WEATHER ELSEWHERE ACROSS MINNESOTA  *****

CITY           SKY/WX    TMP DP  RH WIND       PRES   REMARKS
DULUTH         PTCLDY    33  20  58 N6        30.26R
INTRNTL FALLS  CLEAR     33  20  58 E3        30.26R
ELY            CLOUDY    30  21  69 NW3       30.26R
CLOQUET        CLEAR     36  19  51 N3        30.26R
WHEATON        CLEAR     43  25  49 CALM      30.29S
BRAINERD       CLEAR     45  15  30 CALM      30.25R
HIBBING        CLOUDY    34  20  56 N6        30.27R
ALEXANDRIA     CLEAR     38  17  42 SW5       30.26S
SAINT CLOUD    CLEAR     37  22  54 CALM      30.27S
MINNEAPOLIS    CLEAR     38  26  62 NW6       30.29S
$$

  *****  WEATHER ACROSS SOUTH DAKOTA  *****

CITY           SKY/WX    TMP DP  RH WIND       PRES   REMARKS
SIOUX FALLS    MOCLDY    41  24  51 NE9       30.25F
BROOKINGS      NOT AVBL
WATERTOWN      PTCLDY    38  16  40 CALM      30.24F
HURON          CLOUDY    43  22  43 SE5       30.23S
SISSETON         N/A     38  24  57 S8        30.25F
ABERDEEN       PTCLDY    40  22  48 S9        30.23F
MITCHELL       CLOUDY    46  23  40 E8        30.23F
PIERRE         CLEAR     42  25  50 SE15      30.11F
MOBRIDGE       MOCLDY    42  24  49 S14       30.12F
RAPID CITY     CLEAR     51  36  56 SE15      29.96F
$$

  *****  SOME WEATHER IN NEARBY STATES *****

CITY           SKY/WX    TMP DP  RH WIND       PRES   REMARKS
GLASGOW MT     CLOUDY    53  33  46 E18G25    29.83F
GREAT FALLS MT CLOUDY    56  34  43 W8        29.72F
CHEYENNE WY    CLEAR     54  22  28 S12       29.99S
SCOTTSBLUFF NE CLEAR     57  34  41 SE18      29.96F
OMAHA NE       PTCLDY    53  24  32 CALM      30.24S
DES MOINES IA  CLEAR     52  27  38 CALM      30.26R
DAVENPORT IA   MOCLDY    50  35  56 W7        30.27R
CHICAGO IL     CLOUDY    56  37  49 W7        30.22R
EAU CLAIRE WI  CLOUDY    37  26  64 N5        30.28R
LA CROSSE WI   CLOUDY    40  29  64 NW7       30.29R
$$

  *****  SOME NATIONAL WEATHER *****

CITY           SKY/WX    TMP DP  RH WIND       PRES   REMARKS
LA GUARDIA NY  PTCLDY    43  29  57 E8        30.65S
RALEIGH NC     PTCLDY    53  37  54 E3        30.45R
ATLANTA GA     CLOUDY    61  40  45 E8        30.32R
NEW ORLEANS LA LGT RAIN  63  60  90 E12       30.12F
OKLAHOMA CITY  LGT RAIN  54  44  69 NE7       30.21R
ALBUQUERQUE NM PTCLDY    68  20  16 SE9       30.07F
SALT LAKE CITY MOSUNNY   70  26  19 S13       29.86F
LOS ANGELES CA CLOUDY    64  52  64 W12       29.86S
BOISE ID       PTSUNNY   73  35  25 SE9       29.63F
SEATTLE WA     RAIN      50  48  93 S12G17    29.77F FOG
$$

*** WEATHER ACROSS MANITOBA...SASKATCHEWAN AND ONTARIO ***
                ***ONTARIO***

CITY           SKY/WX    TMP DP  RH WIND       PRES   REMARKS
GERALDTON      LGT SNOW  28  28 100 NE6       30.26F VSB 1   WCI  22
THUNDER BAY    FLURRIES  32  30  93 CALM      30.25S
SIOUX LOOKOUT  PTCLDY    32  12  43 SE3       30.28R
TORONTO        MOCLDY    43  25  49 E5        30.37S
BIG TROUT LK   CLEAR     27   3  36 SW2       30.30S
PICKLE LAKE    MOCLDY    34   0  23 NW3       30.27R
DRYDEN         CLEAR     34   1  25 N3        30.26S
KENORA         CLEAR     34   1  25 N3        30.27S
$$
                *** MANITOBA***

CITY           SKY/WX    TMP DP  RH WIND       PRES   REMARKS
BRANDON        PTCLDY    30  21  69 E15       30.25S WCI  19
DAUPHIN        CLEAR     32  16  51 SE13      30.26  WCI  22
ISLAND LAKE    PTCLDY    32  12  43 N2        30.31S
PILOT MOUND      N/A     34  16  47 E10         N/A
THE PAS        PTCLDY    28  10  47 S8        30.28S WCI  20
THOMPSON       CLEAR     34  16  47 W6        30.27S
WINNIPEG       CLEAR     30   7  37 N7        30.33S WCI  23
LYNN LAKE      CLEAR     36   0  21 CALM      30.23S
CHURCHILL      PTCLDY    21  16  79 N10       30.25R WCI  10
GILLAM         PTCLDY    30  12  47 W7        30.27S WCI  23
$$
                ***SASKATCHEWAN***

CITY           SKY/WX    TMP DP  RH WIND       PRES   REMARKS
ESTEVAN        MOCLDY    37  21  52 SE13      30.09F
KINDERSLEY     CLOUDY    43  32  65 E20G28    29.78S
LLOYDMINSTER   FLURRIES  30  27  86 E15       29.88F WCI  19
PRINCE ALBERT  CLOUDY    34  21  60 SE15G21   30.10F WCI  24
REGINA         NOT AVBL
YORKTON        CLEAR     32  19  59 E13G18    30.18S WCI  22
N. BATTLEFORD  CLOUDY    34  28  80 E21G30    29.94F WCI  22
LA RONGE       CLEAR     36  10  35 E10       30.15S
SASKATOON      CLOUDY    37  25  60 SE16G24   29.99F
SWIFT CURRENT  CLOUDY    48  30  49 SE16      29.80F
$$
NOTE: THESE ARE AUTOMATED STATIONS WITH LIMITED QUALITY CONTROL
      "FAIR" INDICATES FEW OR NO CLOUDS BELOW 12,000 FEET WITH NO
      SIGNIFICANT WEATHER AND/OR OBSTRUCTIONS TO VISIBILITY.
      SKY/WX - SKY CONDITION AND SIGNIFICANT WEATHER.
      TMP - AIR TEMPERATURE.    DP   - DEWPOINT TEMPERATURE.
      RH  - RELATIVE HUMIDITY.  PRES - PRESSURE.
      HX  - HEAT INDEX.         WCI  - WIND CHILL INDEX.
$



USA.gov is the U.S. government's official web portal to all federal, state and local government web resources and services.